Pittsfield, IL

4:10 AM CDT on May 23, 2017 (GMT -0500)
Pittsfield Penstone Municipal

Weather History for KPPQ - December, 2005

Change the Weather History Date:

Saturday, December 31, 2005

  Actual Average (KUIN) Record (KUIN)
Temperature  
Mean Temperature 37 °F -  
Max Temperature 41 °F 29 °F 64 °F (1951)
Min Temperature 33 °F 16 °F -10 °F (1976)
Degree Days  
Heating Degree Days 28    
Moisture  
Dew Point 30 °F    
Average Humidity 77    
Maximum Humidity 93    
Minimum Humidity 70    
Precipitation  
Precipitation 0.00 in - - ()
Sea Level Pressure  
Sea Level Pressure 29.80 in    
Wind  
Wind Speed 9 mph (WSW)    
Max Wind Speed 14 mph    
Max Gust Speed 20 mph    
Visibility 10 miles    
Events      
Averages and records for this station are not official NWS values.
T = Trace of Precipitation, MM = Missing Value Source: NWS Daily Summary

Daily Weather History Graph

Daily Weather History Graph

Search for Another Location

Airport or City:

Trip Planner

Search our weather history database for the weather conditions in past years. The results will help you decide how hot, cold, wet, or windy it might be!

Date:

Astronomy

Dec. 31, 2005 Rise Set
Actual Time 7:23 AM CST 4:48 PM CST
Civil Twilight 6:53 AM CST 5:19 PM CST
Nautical Twilight 6:19 AM CST 5:52 PM CST
Astronomical Twilight 5:47 AM CST 6:25 PM CST
Moon 8:19 AM CST (12/31) 5:21 PM CST (12/31)
Length of Visible Light 10h 25m
Length of Day
9h 25m
New Moon, 1% of the Moon is Illuminated
Dec 31
New Moon
Jan 6
First Quarter
Jan 14
Full
Jan 22
Last Quarter
Jan 29
New

Hourly Weather History & Observations

Time (CST) Temp. Windchill Dew Point Humidity Pressure Visibility Wind Dir Wind Speed Gust Speed Precip Events Conditions
12:02 AM 39.2 °F 33.0 °F 32.0 °F 75% 29.67 in 10.0 mi WSW 9.2 mph - N/A   Overcast
12:22 AM 39.2 °F 33.0 °F 32.0 °F 75% 29.67 in 10.0 mi WSW 9.2 mph - N/A   Mostly Cloudy
12:42 AM 39.2 °F 33.6 °F 32.0 °F 75% 29.67 in 10.0 mi WSW 8.1 mph - N/A   Mostly Cloudy
1:02 AM 39.2 °F 31.2 °F 32.0 °F 75% 29.67 in 10.0 mi WSW 13.8 mph 19.6 mph N/A   Overcast
1:22 AM 39.2 °F 32.5 °F 30.2 °F 70% 29.68 in 10.0 mi West 10.4 mph 18.4 mph N/A   Mostly Cloudy
1:42 AM 37.4 °F 30.3 °F 32.0 °F 81% 29.69 in 10.0 mi WSW 10.4 mph - N/A   Overcast
2:02 AM 37.4 °F 29.8 °F 30.2 °F 75% 29.69 in 10.0 mi WSW 11.5 mph - N/A   Mostly Cloudy
2:22 AM 37.4 °F 29.8 °F 30.2 °F 75% 29.70 in 10.0 mi WSW 11.5 mph - N/A   Scattered Clouds
2:42 AM 37.4 °F 30.8 °F 30.2 °F 75% 29.71 in 10.0 mi WSW 9.2 mph - N/A   Mostly Cloudy
3:02 AM 37.4 °F 30.8 °F 30.2 °F 75% 29.71 in 10.0 mi WSW 9.2 mph - N/A   Mostly Cloudy
3:22 AM 35.6 °F 29.2 °F 30.2 °F 81% 29.71 in 10.0 mi WSW 8.1 mph - N/A   Scattered Clouds
3:42 AM 35.6 °F 28.0 °F 30.2 °F 81% 29.72 in 10.0 mi West 10.4 mph - N/A   Mostly Cloudy
4:03 AM 35.6 °F 28.0 °F 30.2 °F 81% 29.72 in 10.0 mi West 10.4 mph - N/A   Overcast
4:22 AM 35.6 °F 29.2 °F 30.2 °F 81% 29.73 in 10.0 mi West 8.1 mph - N/A   Overcast
4:42 AM 35.6 °F 26.6 °F 30.2 °F 81% 29.74 in 10.0 mi West 13.8 mph 19.6 mph N/A   Overcast
5:02 AM 35.6 °F 28.0 °F 30.2 °F 81% 29.75 in 10.0 mi West 10.4 mph - N/A   Overcast
5:22 AM 35.6 °F 27.1 °F 28.4 °F 75% 29.76 in 10.0 mi West 12.7 mph 17.3 mph N/A   Overcast
5:44 AM 35.6 °F 28.0 °F 28.4 °F 75% 29.78 in 10.0 mi West 10.4 mph 18.4 mph N/A   Overcast
6:02 AM 35.6 °F 28.6 °F 28.4 °F 75% 29.78 in 10.0 mi West 9.2 mph 16.1 mph N/A   Overcast
6:22 AM 35.6 °F 28.6 °F 28.4 °F 75% 29.79 in 10.0 mi West 9.2 mph 19.6 mph N/A   Overcast
6:42 AM 35.6 °F 28.0 °F 28.4 °F 75% 29.80 in 10.0 mi West 10.4 mph 16.1 mph N/A   Overcast
7:02 AM 33.8 °F 25.8 °F 28.4 °F 81% 29.80 in 10.0 mi West 10.4 mph 17.3 mph N/A   Overcast
7:22 AM 33.8 °F 25.3 °F 28.4 °F 81% 29.80 in 10.0 mi West 11.5 mph - N/A   Overcast
7:42 AM 33.8 °F 25.3 °F 28.4 °F 81% 29.80 in 10.0 mi West 11.5 mph 17.3 mph N/A   Overcast
8:02 AM 33.8 °F 27.0 °F 28.4 °F 81% 29.81 in 10.0 mi West 8.1 mph - N/A   Overcast
8:24 AM 33.8 °F 26.4 °F 28.4 °F 81% 29.82 in 10.0 mi West 9.2 mph 16.1 mph N/A   Overcast
8:42 AM 33.8 °F 25.3 °F 28.4 °F 81% 29.83 in 10.0 mi West 11.5 mph 16.1 mph N/A   Overcast
9:04 AM 35.6 °F 28.6 °F 28.4 °F 75% 29.85 in 10.0 mi West 9.2 mph - N/A   Overcast
9:22 AM 35.6 °F 28.6 °F 28.4 °F 75% 29.85 in 10.0 mi West 9.2 mph 16.1 mph N/A   Overcast
9:42 AM 35.6 °F 28.6 °F 28.4 °F 75% 29.85 in 10.0 mi West 9.2 mph - N/A   Mostly Cloudy
10:02 AM 35.6 °F 28.6 °F 28.4 °F 75% 29.86 in 10.0 mi WNW 9.2 mph - N/A   Scattered Clouds
10:22 AM 35.6 °F 27.5 °F 28.4 °F 75% 29.88 in 10.0 mi West 11.5 mph - N/A   Scattered Clouds
10:42 AM 37.4 °F 31.4 °F 30.2 °F 75% 29.88 in 10.0 mi West 8.1 mph - N/A   Scattered Clouds
11:02 AM 37.4 °F 30.3 °F 30.2 °F 75% 29.88 in 10.0 mi West 10.4 mph - N/A   Scattered Clouds
11:22 AM 37.4 °F 30.3 °F 30.2 °F 75% 29.88 in 10.0 mi WSW 10.4 mph - N/A   Scattered Clouds
11:44 AM 37.4 °F 29.3 °F 30.2 °F 75% 29.88 in 10.0 mi WSW 12.7 mph - N/A   Scattered Clouds
12:02 PM 37.4 °F 30.8 °F 30.2 °F 75% 29.88 in 10.0 mi WSW 9.2 mph 16.1 mph N/A   Scattered Clouds
12:22 PM 37.4 °F 31.4 °F 30.2 °F 75% 29.87 in 10.0 mi WSW 8.1 mph - N/A   Scattered Clouds
12:42 PM 37.4 °F 32.8 °F 30.2 °F 75% 29.86 in 10.0 mi WSW 5.8 mph - N/A   Clear
1:02 PM 37.4 °F 32.8 °F 30.2 °F 75% 29.87 in 10.0 mi WSW 5.8 mph - N/A   Clear
1:22 PM 39.2 °F 35.0 °F 32.0 °F 75% 29.85 in 10.0 mi WSW 5.8 mph - N/A   Clear
1:42 PM 39.2 °F 35.9 °F 32.0 °F 75% 29.85 in 10.0 mi WSW 4.6 mph - N/A   Clear
2:02 PM 39.2 °F 34.2 °F 32.0 °F 75% 29.84 in 10.0 mi WSW 6.9 mph - N/A   Clear
2:22 PM 41.0 °F 36.4 °F 32.0 °F 70% 29.85 in 10.0 mi WSW 6.9 mph - N/A   Clear
2:42 PM 41.0 °F 37.1 °F 32.0 °F 70% 29.84 in 10.0 mi SW 5.8 mph - N/A   Clear
3:02 PM 41.0 °F 36.4 °F 32.0 °F 70% 29.83 in 10.0 mi WSW 6.9 mph - N/A   Clear
3:24 PM 41.0 °F 38.0 °F 32.0 °F 70% 29.83 in 10.0 mi SW 4.6 mph - N/A   Clear
3:42 PM 41.0 °F 37.1 °F 33.8 °F 76% 29.82 in 10.0 mi ESE 5.8 mph - N/A   Clear
4:02 PM 41.0 °F 37.1 °F 33.8 °F 76% 29.82 in 10.0 mi SE 5.8 mph - N/A   Clear
4:24 PM 39.2 °F - 33.8 °F 81% 29.84 in 10.0 mi Calm Calm - N/A   Clear
4:43 PM 39.2 °F - 33.8 °F 81% 29.84 in 10.0 mi Calm Calm - N/A   Clear
5:02 PM 37.4 °F - 32.0 °F 81% 29.85 in 10.0 mi Calm Calm - N/A   Clear
5:22 PM 35.6 °F - 30.2 °F 81% 29.84 in 10.0 mi Calm Calm - N/A   Clear
5:42 PM 35.6 °F - 32.0 °F 87% 29.85 in 10.0 mi Calm Calm - N/A   Clear
6:04 PM 35.6 °F 32.8 °F 32.0 °F 87% 29.85 in 10.0 mi East 3.5 mph - N/A   Clear
6:22 PM 33.8 °F 29.6 °F 32.0 °F 93% 29.85 in 10.0 mi ESE 4.6 mph - N/A   Clear
6:42 PM 33.8 °F 28.6 °F 30.2 °F 87% 29.85 in 10.0 mi East 5.8 mph - N/A   Clear
7:02 PM 35.6 °F 31.7 °F 30.2 °F 81% 29.86 in 10.0 mi East 4.6 mph - N/A   Clear
7:22 PM 35.6 °F 32.8 °F 30.2 °F 81% 29.87 in 10.0 mi ESE 3.5 mph - N/A   Clear
7:42 PM 33.8 °F 29.6 °F 30.2 °F 87% 29.85 in 10.0 mi East 4.6 mph - N/A   Clear
8:02 PM 33.8 °F 28.6 °F 30.2 °F 87% 29.85 in 10.0 mi East 5.8 mph - N/A   Clear
8:22 PM 33.8 °F 27.7 °F 30.2 °F 87% 29.84 in 10.0 mi ESE 6.9 mph - N/A   Clear
8:42 PM 33.8 °F 28.6 °F 30.2 °F 87% 29.83 in 10.0 mi ESE 5.8 mph - N/A   Clear
9:02 PM 33.8 °F 28.6 °F 30.2 °F 87% 29.83 in 10.0 mi ESE 5.8 mph - N/A   Clear
9:22 PM 33.8 °F 29.6 °F 30.2 °F 87% 29.83 in 10.0 mi ESE 4.6 mph - N/A   Clear
9:44 PM 35.6 °F 31.7 °F 30.2 °F 81% 29.83 in 10.0 mi ESE 4.6 mph - N/A   Clear
10:02 PM 33.8 °F 28.6 °F 30.2 °F 87% 29.83 in 10.0 mi ESE 5.8 mph - N/A   Clear
10:24 PM 35.6 °F 30.7 °F 30.2 °F 81% 29.83 in 10.0 mi ESE 5.8 mph - N/A   Clear
10:42 PM 33.8 °F 28.6 °F 30.2 °F 87% 29.83 in 10.0 mi ESE 5.8 mph - N/A   Clear
11:02 PM 33.8 °F 29.6 °F 30.2 °F 87% 29.82 in 10.0 mi ESE 4.6 mph - N/A   Clear
11:22 PM 33.8 °F 29.6 °F 30.2 °F 87% 29.83 in 10.0 mi ESE 4.6 mph - N/A   Clear
11:42 PM 33.8 °F 30.8 °F 30.2 °F 87% 29.83 in 10.0 mi ESE 3.5 mph - N/A   Clear